Regional Weather Roundup
Issued by NWS Newport/Morehead, NC

Current Version | Previous Version | Text Only | Print | Product List | Glossary Off
Versions: 1 2 3 4 5 6 7 8 9 10 11 12 13 14 15 16 17 18 19 20 21 22 23 24 25 26 27 28 29 30 31 32 33 34 35 36 37 38 39 40 41 42 43 44 45 46 47 48 49 50
000 ASUS42 KMHX 011825 RWRMHX WEATHER ROUNDUP FOR EASTERN NORTH CAROLINA NATIONAL WEATHER SERVICE NEWPORT/MOREHEAD CITY NC 200 PM EDT SAT AUG 01 2015 NOTE: "FAIR" INDICATES FEW OR NO CLOUDS BELOW 12,000 FEET WITH NO SIGNIFICANT WEATHER AND/OR OBSTRUCTIONS TO VISIBILITY NCZ015>017-031-032-045>047-102-103-011900- NORTH COAST CITY SKY/WX TMP DP RH WIND PRES REMARKS EDENTON N/A 90 64 41 SW9 29.89F ELIZABETH CITY MOSUNNY 89 70 53 E10 29.89F KITTY HAWK PTCLDY 90 72 56 S7 29.89F MANTEO PTSUNNY 84 75 73 S12 29.91S $$ NCZ045>047-081-094-103-104-011900- CENTRAL COAST CITY SKY/WX TMP DP RH WIND PRES REMARKS FRISCO PTSUNNY 83 74 74 S8 29.92F SWANQUARTER N/A 81 N/A N/A SE3G10 29.88S $$ NCZ095-097-098-100-101-011900- SOUTHERN COAST CITY SKY/WX TMP DP RH WIND PRES REMARKS BEAUFORT PTSUNNY 84 77 79 W10 29.91F CEDAR ISLAND N/A 84 N/A N/A SE8 29.94S JACKSONVILLE PTSUNNY 88 71 57 SE6 29.90F PINEY ISLAND MOCLDY N/A N/A N/A N5 29.89F WILMINGTON MOSUNNY 89 72 56 VRB5 29.92F $$ NCZ011>013-027>030-043-044-078>080-089-090>093-098-011900- COASTAL PLAIN CITY SKY/WX TMP DP RH WIND PRES REMARKS AHOSKIE MOSUNNY 89 58 34 SW3 29.89F CLINTON SUNNY 92 64 38 N3 29.91F ELIZABETHTOWN PTSUNNY 93 60 33 NW3 29.91F GOLDSBORO SUNNY 92 68 45 NE6 29.89F GREENVILLE MOSUNNY 93 59 31 NW3 29.91F HAVELOCK LGT RAIN 77 71 82 S12 29.92F KENANSVILLE SUNNY N/A N/A N/A NW7 29.91F KINSTON SUNNY 90 61 37 CALM 29.91F NEW BERN MOSUNNY 92 68 45 VRB5 29.90F RICHLANDS MOSUNNY 93 64 38 W5 29.90F ROCKY MOUNT SUNNY 93 56 28 CALM 29.90F WASHINGTON SUNNY 89 63 42 CALM 29.90F WHITEVILLE MOSUNNY 91 67 45 S3 29.91F $$ AMZ130-135-150-152-154-156-158-170-250-252-270-ANZ085-086-088-633-658-670-011900- MARINE OBSERVATIONS STATION/POSITION TIME TEMP WIND PRES WAVE SWELL AIR SEA DIR/SP/G HT/PER HT/PER (UTC) (F) (DEG/KT/KT) (MB) (FT/S) (FT/S) CHESAPEAKE LIGHT 1800 81 170/ 16/ 17 1012.6 64 E VA BEACH 1750 81 81 210/ 14/ 16 1012.7 3/ 8 3/ 8 DUCK 1800 81 79 130/ 11/ 13 1011.6 2 E DUCK 1811 79 N/A 2/10 OREGON INLET 1800 81 81 180/ 11/ 13 1012.6 13E OREGON INLT 1800 81 N/A 4/ 7 HATTERAS CG 1800 83 80 160/ 7/ 8 1012.9 DIAMOND BUOY 1750 79 85 170/ 17/ 21 1013.0 3/ 8 2/ 8 CAPE LOOKOUT 1800 83 240/ 10/ 12 1012.6 BEAUFORT LAB 1800 84 83 250/ 6/ 9 1012.1 30 SE NEW RVR IN NOT AVBL 27 SE WRIGHTSVLE 1800 77 83 220/ 10/ 16 N/A 5 SE WRIGHTSVLE 1708 82 83 230/ 8/ 12 1013.7 225 S CAPE HAT 1750 84 81 230/ 17/ 21 1016.3 6/ 7 2/10 41 SE CHARLESTON 1750 78 84 180/ 4/ 6 1013.5 3/ 7 3/ 7 $$

USA.gov is the U.S. government's official web portal to all federal, state and local government web resources and services.